Time,TemperatureF,DewpointF,PressureIn,WindDirection,WindDirectionDegrees,WindSpeedMPH,WindSpeedGustMPH,Humidity,HourlyPrecipIn,Conditions,Clouds,dailyrainin,SoftwareType,DateUTC
2014-09-19 00:03:00,55.0,46.5,30.05,North,360,6.0,6.0,73,0.00,,,-99.99,Weather View 32 v70,2014-09-19 06:03:00,
2014-09-19 00:18:00,55.0,46.8,30.05,North,360,4.0,7.0,74,0.00,,,-99.99,Weather View 32 v70,2014-09-19 06:18:00,
2014-09-19 00:21:00,55.0,47.2,30.05,NNW,337,6.0,8.0,75,0.00,,,-99.99,Weather View 32 v70,2014-09-19 06:21:00,
2014-09-19 00:28:00,55.0,47.6,30.05,NNE,22,6.0,8.0,76,0.00,,,-99.99,Weather View 32 v70,2014-09-19 06:28:00,
2014-09-19 00:38:00,55.0,47.6,30.06,NNE,22,5.0,9.0,76,0.00,,,-99.99,Weather View 32 v70,2014-09-19 06:38:00,
2014-09-19 00:43:00,55.0,47.6,30.05,North,360,8.0,9.0,76,0.00,,,-99.99,Weather View 32 v70,2014-09-19 06:43:00,
2014-09-19 00:48:00,56.0,48.2,30.05,North,360,7.0,10.0,75,0.00,,,-99.99,Weather View 32 v70,2014-09-19 06:48:00,
2014-09-19 00:58:00,57.0,48.8,30.05,NNW,337,7.0,11.0,74,0.00,,,-99.99,Weather View 32 v70,2014-09-19 06:58:00,
2014-09-19 01:03:00,57.0,48.0,30.05,North,360,4.0,11.0,72,0.00,,,-99.99,Weather View 32 v70,2014-09-19 07:03:00,
2014-09-19 01:08:00,56.0,47.1,30.06,North,360,3.0,11.0,72,0.00,,,-99.99,Weather View 32 v70,2014-09-19 07:08:00,
2014-09-19 01:13:00,56.0,47.4,30.05,North,360,2.0,11.0,73,0.00,,,-99.99,Weather View 32 v70,2014-09-19 07:13:00,
2014-09-19 01:18:00,55.0,46.8,30.06,ENE,67,3.0,11.0,74,0.00,,,-99.99,Weather View 32 v70,2014-09-19 07:18:00,
2014-09-19 01:23:00,56.0,47.8,30.05,NNE,22,4.0,11.0,74,0.00,,,-99.99,Weather View 32 v70,2014-09-19 07:23:00,
2014-09-19 01:28:00,56.0,47.4,30.06,North,360,3.0,11.0,73,0.00,,,-99.99,Weather View 32 v70,2014-09-19 07:28:00,
2014-09-19 01:33:00,56.0,47.4,30.06,NNW,337,5.0,11.0,73,0.00,,,-99.99,Weather View 32 v70,2014-09-19 07:33:00,
2014-09-19 01:43:00,56.0,47.4,30.05,North,360,4.0,11.0,73,0.00,,,-99.99,Weather View 32 v70,2014-09-19 07:43:00,
2014-09-19 01:53:00,53.0,46.0,30.05,North,360,4.0,8.0,77,0.00,,,-99.99,Weather View 32 v70,2014-09-19 07:53:00,
2014-09-19 02:08:00,53.0,46.3,30.05,NW,315,6.0,8.0,78,0.00,,,-99.99,Weather View 32 v70,2014-09-19 08:08:00,
2014-09-19 02:13:00,55.0,46.5,30.05,NNW,337,5.0,10.0,73,0.00,,,-99.99,Weather View 32 v70,2014-09-19 08:13:00,
2014-09-19 02:23:00,55.0,46.8,30.05,NNW,337,4.0,10.0,74,0.00,,,-99.99,Weather View 32 v70,2014-09-19 08:23:00,
2014-09-19 02:28:00,54.0,45.9,30.05,North,360,4.0,10.0,74,0.00,,,-99.99,Weather View 32 v70,2014-09-19 08:28:00,
2014-09-19 02:33:00,54.0,46.2,30.05,North,360,4.0,10.0,75,0.00,,,-99.99,Weather View 32 v70,2014-09-19 08:33:00,
2014-09-19 02:38:00,54.0,46.2,30.05,NNW,337,6.0,10.0,75,0.00,,,-99.99,Weather View 32 v70,2014-09-19 08:38:00,
2014-09-19 02:43:00,54.0,46.2,30.05,NNW,337,7.0,10.0,75,0.00,,,-99.99,Weather View 32 v70,2014-09-19 08:43:00,
2014-09-19 02:48:00,54.0,46.2,30.05,NNW,337,7.0,10.0,75,0.00,,,-99.99,Weather View 32 v70,2014-09-19 08:48:00,
2014-09-19 02:53:00,54.0,46.2,30.04,NNW,337,5.0,10.0,75,0.00,,,-99.99,Weather View 32 v70,2014-09-19 08:53:00,
2014-09-19 02:58:00,54.0,46.2,30.05,North,360,5.0,10.0,75,0.00,,,-99.99,Weather View 32 v70,2014-09-19 08:58:00,
2014-09-19 03:03:00,53.0,45.6,30.05,NNE,22,6.0,10.0,76,0.00,,,-99.99,Weather View 32 v70,2014-09-19 09:03:00,
2014-09-19 03:08:00,53.0,46.0,30.05,NNE,22,4.0,10.0,77,0.00,,,-99.99,Weather View 32 v70,2014-09-19 09:08:00,
2014-09-19 03:13:00,52.0,45.0,30.04,NNW,337,6.0,10.0,77,0.00,,,-99.99,Weather View 32 v70,2014-09-19 09:13:00,
2014-09-19 03:23:00,53.0,45.6,30.04,NNW,337,8.0,10.0,76,0.00,,,-99.99,Weather View 32 v70,2014-09-19 09:23:00,
2014-09-19 03:33:00,53.0,44.9,30.04,North,360,5.0,10.0,74,0.00,,,-99.99,Weather View 32 v70,2014-09-19 09:33:00,
2014-09-19 03:38:00,53.0,44.9,30.05,NNE,22,3.0,10.0,74,0.00,,,-99.99,Weather View 32 v70,2014-09-19 09:38:00,
2014-09-19 03:43:00,52.0,44.3,30.05,NNE,22,5.0,10.0,75,0.00,,,-99.99,Weather View 32 v70,2014-09-19 09:43:00,
2014-09-19 03:48:00,52.0,44.7,30.04,NNE,22,4.0,10.0,76,0.00,,,-99.99,Weather View 32 v70,2014-09-19 09:48:00,
2014-09-19 03:58:00,52.0,44.7,30.04,NNE,22,4.0,10.0,76,0.00,,,-99.99,Weather View 32 v70,2014-09-19 09:58:00,
2014-09-19 04:08:00,52.0,44.7,30.05,NNE,22,6.0,10.0,76,0.00,,,-99.99,Weather View 32 v70,2014-09-19 10:08:00,
2014-09-19 04:13:00,52.0,44.7,30.04,NNE,22,6.0,10.0,76,0.00,,,-99.99,Weather View 32 v70,2014-09-19 10:13:00,
2014-09-19 04:24:00,51.0,43.7,30.05,NNE,22,8.0,10.0,76,0.00,,,-99.99,Weather View 32 v70,2014-09-19 10:24:00,
2014-09-19 04:38:00,51.0,44.0,30.05,NNE,22,7.0,8.0,77,0.00,,,-99.99,Weather View 32 v70,2014-09-19 10:38:00,
2014-09-19 04:43:00,52.0,44.7,30.05,North,360,7.0,8.0,76,0.00,,,-99.99,Weather View 32 v70,2014-09-19 10:43:00,
2014-09-19 04:53:00,52.0,44.3,30.05,North,360,4.0,8.0,75,0.00,,,-99.99,Weather View 32 v70,2014-09-19 10:53:00,
2014-09-19 05:03:00,52.0,44.3,30.05,North,360,5.0,8.0,75,0.00,,,-99.99,Weather View 32 v70,2014-09-19 11:03:00,
2014-09-19 05:08:00,52.0,44.0,30.05,NNW,337,4.0,8.0,74,0.00,,,-99.99,Weather View 32 v70,2014-09-19 11:08:00,
2014-09-19 05:13:00,52.0,44.0,30.05,NNW,337,2.0,8.0,74,0.00,,,-99.99,Weather View 32 v70,2014-09-19 11:13:00,
2014-09-19 05:18:00,52.0,44.0,30.05,NNW,337,4.0,8.0,74,0.00,,,-99.99,Weather View 32 v70,2014-09-19 11:18:00,
2014-09-19 05:23:00,53.0,44.9,30.05,NW,315,2.0,8.0,74,0.00,,,-99.99,Weather View 32 v70,2014-09-19 11:23:00,
2014-09-19 05:28:00,53.0,44.6,30.06,NW,315,1.0,8.0,73,0.00,,,-99.99,Weather View 32 v70,2014-09-19 11:28:00,
2014-09-19 05:33:00,54.0,45.5,30.06,NW,315,1.0,8.0,73,0.00,,,-99.99,Weather View 32 v70,2014-09-19 11:33:00,